Change the Weather History Date:

Friday, June 28, 2013

  Actual Average (KTRI) Record (KTRI)
Temperature  
Mean Temperature 73 °F 74 °F  
Max Temperature 82 °F 85 °F 97 °F (2012)
Min Temperature 64 °F 63 °F 50 °F (1970)
Degree Days  
Heating Degree Days 0 0  
Month to date heating degree days 9  
Since 1 June heating degree days 9  
Since 1 July heating degree days 4372  
Cooling Degree Days 8 9  
Month to date cooling degree days 188  
Year to date cooling degree days 261  
Since 1 June cooling degree days 188  
Growing Degree Days 23 (Base 50)    
Moisture  
Dew Point 67 °F    
Average Humidity 84    
Maximum Humidity 100    
Minimum Humidity 61    
Precipitation  
Precipitation 0.00 in 0.14 in 1.87 in (1947)
Month to date precipitation 3.63  
Year to date precipitation 21.02  
Snow  
Snow 0.00 in 0.00 in - ()
Month to date snowfall 0.0  
Since 1 June snowfall 0.0  
Since 1 July snowfall 13.3  
Snow Depth -    
Sea Level Pressure  
Sea Level Pressure 29.78 in    
Wind  
Wind Speed 4 mph (West)    
Max Wind Speed 12 mph    
Max Gust Speed 18 mph    
Visibility 10 miles    
Events Rain    
T = Trace of Precipitation, MM = Missing Value Source: NWS Daily Summary

Daily Weather History Graph

Daily Weather History Graph

Search for Another Location

Airport or City:

Trip Planner

Search our weather history database for the weather conditions in past years. The results will help you decide how hot, cold, wet, or windy it might be!

Date:

Astronomy

Jun. 28, 2013 Rise Set
Actual Time 6:13 AM EDT 8:50 PM EDT
Civil Twilight 5:42 AM EDT 9:20 PM EDT
Nautical Twilight 5:05 AM EDT 9:58 PM EDT
Astronomical Twilight 4:22 AM EDT 10:40 PM EDT
Moon No Moon Rise 12:08 PM EDT (6/28)
Length of Visible Light 15h 37m
Length of Day
14h 37m
Waning Gibbous, 66% of the Moon is Illuminated
Jun 28
Waning Gibbous
Jun 30
Last Quarter
Jul 8
New
Jul 15
First Quarter
Jul 22
Full

Hourly Weather History & Observations

Time (EDT) Temp. Heat Index Dew Point Humidity Pressure Visibility Wind Dir Wind Speed Gust Speed Precip Events Conditions
12:15 AM 71.6 °F - 71.6 °F 100% 29.87 in 9.0 mi West 4.6 mph - N/A   Overcast
12:35 AM 71.6 °F - 69.8 °F 94% 29.87 in 10.0 mi West 4.6 mph - N/A   Overcast
12:55 AM 71.6 °F - 69.8 °F 94% 29.86 in 10.0 mi West 6.9 mph - N/A   Overcast
1:15 AM 71.6 °F - 69.8 °F 94% 29.86 in 10.0 mi West 4.6 mph - N/A   Overcast
1:35 AM 69.8 °F - 69.8 °F 100% 29.85 in 10.0 mi WNW 3.5 mph - N/A   Scattered Clouds
1:55 AM 69.8 °F - 68.0 °F 94% 29.84 in 10.0 mi NW 3.5 mph - N/A   Partly Cloudy
2:15 AM 68.0 °F - 66.2 °F 94% 29.84 in 10.0 mi NW 4.6 mph - N/A   Clear
2:35 AM 69.8 °F - 66.2 °F 88% 29.85 in 10.0 mi WNW 3.5 mph - N/A   Scattered Clouds
2:55 AM 69.8 °F - 66.2 °F 88% 29.84 in 10.0 mi WNW 4.6 mph - N/A   Mostly Cloudy
3:15 AM 69.8 °F - 66.2 °F 88% 29.84 in 10.0 mi Calm Calm - N/A   Overcast
3:35 AM 69.8 °F - 66.2 °F 88% 29.84 in 10.0 mi Calm Calm - N/A   Overcast
3:55 AM 69.8 °F - 66.2 °F 88% 29.84 in 10.0 mi Calm Calm - N/A   Overcast
4:15 AM 69.8 °F - 66.2 °F 88% 29.84 in 10.0 mi West 4.6 mph - N/A   Overcast
4:35 AM 69.8 °F - 66.2 °F 88% 29.84 in 10.0 mi Calm Calm - N/A   Overcast
4:55 AM 69.8 °F - 66.2 °F 88% 29.84 in 10.0 mi West 3.5 mph - N/A   Overcast
5:15 AM 69.8 °F - 66.2 °F 88% 29.84 in 10.0 mi West 3.5 mph - N/A   Mostly Cloudy
5:35 AM 69.8 °F - 66.2 °F 88% 29.84 in 10.0 mi West 4.6 mph - N/A   Mostly Cloudy
5:55 AM 69.8 °F - 66.2 °F 88% 29.85 in 10.0 mi West 3.5 mph - N/A   Mostly Cloudy
6:15 AM 69.8 °F - 66.2 °F 88% 29.84 in 10.0 mi WNW 5.8 mph - N/A   Mostly Cloudy
6:35 AM 69.8 °F - 66.2 °F 88% 29.84 in 10.0 mi WNW 3.5 mph - N/A   Overcast
6:55 AM 69.8 °F - 66.2 °F 88% 29.84 in 10.0 mi West 4.6 mph - N/A   Overcast
7:15 AM 69.8 °F - 66.2 °F 88% 29.84 in 10.0 mi WNW 4.6 mph - N/A   Overcast
7:35 AM 69.8 °F - 66.2 °F 88% 29.84 in 10.0 mi West 6.9 mph - N/A   Overcast
7:55 AM 69.8 °F - 68.0 °F 94% 29.82 in 10.0 mi Variable 4.6 mph - N/A   Overcast
8:55 AM 71.6 °F - 68.0 °F 88% 29.82 in 10.0 mi Variable 4.6 mph - N/A   Overcast
9:15 AM 73.4 °F - 69.8 °F 88% 29.82 in 10.0 mi Variable 3.5 mph - N/A   Overcast
9:35 AM 75.2 °F - 69.8 °F 83% 29.82 in 10.0 mi West 8.1 mph - N/A   Mostly Cloudy
9:55 AM 75.2 °F - 69.8 °F 83% 29.80 in 10.0 mi West 6.9 mph - N/A   Mostly Cloudy
10:15 AM 77.0 °F - 69.8 °F 78% 29.79 in 10.0 mi WNW 8.1 mph - N/A   Mostly Cloudy
10:35 AM 78.8 °F - 68.0 °F 69% 29.79 in 10.0 mi West 11.5 mph - N/A   Scattered Clouds
10:55 AM 78.8 °F - 69.8 °F 74% 29.79 in 10.0 mi WSW 6.9 mph - N/A   Scattered Clouds
11:15 AM 80.6 °F 83.9 °F 69.8 °F 70% 29.79 in 10.0 mi WSW 10.4 mph - N/A   Mostly Cloudy
11:35 AM 80.6 °F 83.2 °F 68.0 °F 65% 29.78 in 10.0 mi Variable 6.9 mph - N/A   Mostly Cloudy
11:55 AM 80.6 °F 83.9 °F 69.8 °F 70% 29.78 in 10.0 mi Variable 5.8 mph - N/A   Mostly Cloudy
12:15 PM 82.4 °F 86.3 °F 69.8 °F 66% 29.78 in 10.0 mi WNW 8.1 mph - N/A   Scattered Clouds
12:35 PM 82.4 °F 86.3 °F 69.8 °F 66% 29.78 in 10.0 mi West 10.4 mph - N/A   Scattered Clouds
12:55 PM 80.6 °F 83.2 °F 68.0 °F 65% 29.77 in 10.0 mi West 10.4 mph - N/A   Scattered Clouds
1:35 PM 82.4 °F 85.4 °F 68.0 °F 62% 29.77 in 10.0 mi West 8.1 mph - N/A   Mostly Cloudy
1:55 PM 80.6 °F 82.7 °F 66.2 °F 61% 29.77 in 10.0 mi WSW 9.2 mph - N/A   Mostly Cloudy
2:15 PM 80.6 °F 82.7 °F 66.2 °F 61% 29.77 in 10.0 mi West 9.2 mph - N/A   Light Drizzle
2:35 PM 78.8 °F - 66.2 °F 65% 29.77 in 10.0 mi West 9.2 mph - N/A   Clear
2:55 PM 80.6 °F 82.7 °F 66.2 °F 61% 29.77 in 10.0 mi WSW 9.2 mph 18.4 mph N/A   Clear
3:15 PM 80.6 °F 83.2 °F 68.0 °F 65% 29.75 in 10.0 mi West 8.1 mph - N/A   Partly Cloudy
3:35 PM 77.0 °F - 66.2 °F 69% 29.75 in 10.0 mi West 11.5 mph - N/A Rain Light Rain
3:55 PM 71.6 °F - 66.2 °F 83% 29.74 in 5.0 mi WSW 5.8 mph - N/A Rain Rain
4:15 PM 69.8 °F - 66.2 °F 88% 29.75 in 10.0 mi WSW 8.1 mph - N/A   Mostly Cloudy
4:35 PM 71.6 °F - 66.2 °F 83% 29.74 in 10.0 mi Calm Calm - N/A   Mostly Cloudy
4:55 PM 71.6 °F - 66.2 °F 83% 29.74 in 10.0 mi Calm Calm - N/A   Scattered Clouds
5:15 PM 71.6 °F - 66.2 °F 83% 29.73 in 10.0 mi Calm Calm - N/A   Mostly Cloudy
5:35 PM 71.6 °F - 66.2 °F 83% 29.72 in 10.0 mi Calm Calm - N/A   Scattered Clouds
5:55 PM 73.4 °F - 66.2 °F 78% 29.71 in 10.0 mi Calm Calm - N/A   Partly Cloudy
6:15 PM 73.4 °F - 68.0 °F 83% 29.71 in 10.0 mi SE 3.5 mph - N/A   Clear
6:35 PM 75.2 °F - 68.0 °F 78% 29.71 in 10.0 mi Calm Calm - N/A   Partly Cloudy
6:55 PM 73.4 °F - 69.8 °F 88% 29.71 in 10.0 mi Calm Calm - N/A   Mostly Cloudy
7:15 PM 73.4 °F - 69.8 °F 88% 29.71 in 10.0 mi Calm Calm - N/A   Overcast
7:35 PM 71.6 °F - 69.8 °F 94% 29.71 in 10.0 mi NW 3.5 mph - N/A   Overcast
7:55 PM 73.4 °F - 68.0 °F 83% 29.72 in 10.0 mi Variable 4.6 mph - N/A   Mostly Cloudy
8:15 PM 73.4 °F - 66.2 °F 78% 29.72 in 10.0 mi West 5.8 mph - N/A   Scattered Clouds
8:35 PM 71.6 °F - 66.2 °F 83% 29.72 in 10.0 mi WNW 6.9 mph - N/A   Scattered Clouds
8:55 PM 69.8 °F - 66.2 °F 88% 29.72 in 10.0 mi NW 4.6 mph - N/A   Clear
9:15 PM 66.2 °F - 66.2 °F 100% 29.72 in 10.0 mi Calm Calm - N/A   Clear
9:35 PM 66.2 °F - 64.4 °F 94% 29.73 in 10.0 mi NNW 3.5 mph - N/A   Clear
9:55 PM 66.2 °F - 64.4 °F 94% 29.73 in 10.0 mi NNW 3.5 mph - N/A   Clear
10:15 PM 64.4 °F - 64.4 °F 100% 29.74 in 10.0 mi Calm Calm - N/A   Partly Cloudy
10:35 PM 64.4 °F - 64.4 °F 100% 29.75 in 10.0 mi Calm Calm - N/A   Partly Cloudy
10:55 PM 64.4 °F - 64.4 °F 100% 29.75 in 10.0 mi Calm Calm - N/A   Mostly Cloudy
11:15 PM 64.4 °F - 64.4 °F 100% 29.75 in 5.0 mi Calm Calm - N/A   Mostly Cloudy
11:35 PM 64.4 °F - 64.4 °F 100% 29.74 in 10.0 mi Calm Calm - N/A   Overcast
11:55 PM 64.4 °F - 64.4 °F 100% 29.74 in 10.0 mi Calm Calm - N/A   Mostly Cloudy